Regional Weather Roundup
Issued by NWS

Home | Current Version | Previous Version | Text Only | Print | Product List | Glossary Off
Versions: 1 2 3 4 5 6 7 8 9 10 11 12 13 14 15 16 17 18 19 20 21 22 23 24 25 26 27 28 29 30 31 32 33 34 35 36 37 38 39 40 41 42 43 44 45 46 47 48 49 50

000
ASUS43 KFSD 241002
RWRSD

WEATHER ROUNDUP FOR SOUTH DAKOTA
NATIONAL WEATHER SERVICE SIOUX FALLS SD
500 AM CDT MON JUL 24 2017

NOTE: "FAIR" INDICATES FEW OR NO CLOUDS BELOW 12,000 FEET WITH NO
SIGNIFICANT WEATHER AND/OR OBSTRUCTIONS TO VISIBILITY.


SDZ001>005-009-010-012>017-241100-
NORTHWEST AND NORTH CENTRAL SOUTH DAKOTA

CITY           SKY/WX    TMP DP  RH WIND       PRES   REMARKS
BUFFALO          N/A     73  55  53 SE14      29.84F
FAITH            N/A     69  56  62 VRB6      29.99R
MOBRIDGE       MOCLDY    68  61  78 SE14      29.92F
$$

SDZ012>016-024>037-041>051-057-063-072>074-241100-
SOUTHWEST AND SOUTH CENTRAL SOUTH DAKOTA

CITY           SKY/WX    TMP DP  RH WIND       PRES   REMARKS
RAPID CTY ARPT CLOUDY    71  53  52 NW14      29.95F
PIERRE         CLOUDY    66  58  75 SE10      29.94F
CUSTER         CLOUDY    65  46  50 CALM      30.07S
ELLSWORTH AFB  MOCLDY    70  54  56 W9        29.95F
PHILIP         CLOUDY    67  58  72 E7        29.90F
PINE RIDGE     PTCLDY    74  54  49 S10       29.92F
SPEARFISH      FAIR      63  59  88 SE9       29.95F
WINNER         FAIR      69  57  65 SE8       29.98F
$$

SDZ004>011-016>023-039-040-241100-
NORTHEAST SOUTH DAKOTA

CITY           SKY/WX    TMP DP  RH WIND       PRES   REMARKS
ABERDEEN       CLOUDY    59  58  96 S6        30.01R
WATERTOWN      CLEAR     58  56  93 CALM      30.03R
BROOKINGS      CLEAR     57  55  93 CALM      30.04R
SISSETON         N/A     56  54  93 SE5       30.01R
$$

SDZ017-020-022-023-036>040-048>070-241100-
SOUTHEAST SOUTH DAKOTA

CITY           SKY/WX    TMP DP  RH WIND       PRES   REMARKS
SIOUX FALLS    CLEAR     56  55  97 NE5       30.02F
HURON          CLEAR     61  59  93 SE7       30.00F
CHAMBERLAIN    CLEAR     64  61  91 E8        29.98F
MITCHELL       CLEAR     61  59  93 SE7       30.02S
YANKTON        CLEAR     59  58  96 NE6       30.02F FOG
$$

ABBREVIATIONS USED IN REMARKS
   TC - TEMPERATURE IN CELSIUS
  WCI - WIND CHILL INDEX
   HX - HEAT INDEX
  VSB - VISIBILITY





USA.gov is the U.S. government's official web portal to all federal, state and local government web resources and services.